EW7398 Weather Reports


Display with metric or nautical units.
time (UTC)temp
F
wind
direction
speed
MPH
gust
MPH
rain 1hr
in
rain 24hr
in
rain mn
in
humidity
%
barometer
mb
20260902053041 67 150 3.0 6.0 0.00 0.00 0.00 69 1010.6
20260902051522 68 136 3.0 5.0 0.00 0.00 0.00 67 1010.7
20260902050059 69 136 2.0 4.0 0.00 0.00 0.00 65 1010.7
20260902044551 70 136 2.0 4.0 0.00 0.00 0.00 61 1010.8
20260902043008 71 143 3.0 4.0 0.00 0.00 0.00 60 1010.7
20260902041553 72 53 1.0 4.0 0.00 0.00 0.00 58 1010.6
20260902040010 73 194 1.0 3.0 0.00 0.00 0.00 56 1010.6
20260902034548 74 194 1.0 3.0 0.00 0.00 0.00 52 1010.5
20260902033036 74 188 2.0 6.0 0.00 0.00 0.00 51 1010.3
20260902031538 74 194 5.0 8.0 0.00 0.00 0.00 50 1010.2
20260902024526 75 188 4.0 9.0 0.00 0.00 0.00 48 1009.7
20260902023019 75 210 4.0 8.0 0.00 0.00 0.00 47 1009.7
20260902021550 76 207 2.0 6.0 0.00 0.00 0.00 44 1009.5
20260902020020 77 229 1.0 5.0 0.00 0.00 0.00 43 1009.3
20260902014513 78 360 5.0 9.0 0.00 0.00 0.00 41 1009.2
20260902013043 79 242 6.0 14.0 0.00 0.00 0.00 38 1009.3
20260902011531 80 218 5.0 14.0 0.00 0.00 0.00 39 1009.4
20260902010113 80 205 5.0 10.0 0.00 0.00 0.00 41 1009.4
20260902004528 81 180 7.0 14.0 0.00 0.00 0.00 41 1009.4
20260902003020 81 240 4.0 14.0 0.00 0.00 0.00 40 1009.5
20260902001556 82 217 9.0 17.0 0.00 0.00 0.00 37 1009.7
20260902000043 82 211 7.0 15.0 0.00 0.00 0.00 40 1009.7
20260901234505 82 200 8.0 13.0 0.00 0.23 0.00 38 1009.8
20260901233047 83 236 8.0 15.0 0.00 0.23 0.00 36 1009.8
20260901231531 84 259 7.0 14.0 0.00 0.23 0.00 35 1009.8
20260901230111 85 199 8.0 15.0 0.00 0.23 0.00 32 1009.9
20260901224538 86 196 9.0 18.0 0.00 0.23 0.00 34 1009.9
20260901223017 86 221 7.0 14.0 0.00 0.23 0.00 34 1010.1
20260901221610 86 259 4.0 19.0 0.00 0.23 0.00 32 1010.1
20260901220025 85 194 5.0 14.0 0.00 0.23 0.00 42 1010.4
20260901214503 85 197 7.0 14.0 0.00 0.23 0.00 36 1010.5
20260901213041 83 201 4.0 14.0 0.00 0.23 0.00 36 1010.8
20260901211519 83 219 8.0 16.0 0.00 0.23 0.00 36 1010.9
20260901210057 84 190 6.0 14.0 0.00 0.23 0.00 42 1010.8
20260901204519 84 203 7.0 14.0 0.00 0.23 0.00 45 1010.9
20260901203007 83 151 9.0 16.0 0.00 0.23 0.00 44 1011.1
20260901201549 82 217 5.0 13.0 0.00 0.23 0.00 46 1011.3
20260901200003 81 183 11.0 20.0 0.00 0.23 0.00 49 1011.5
20260901194537 81 200 6.0 19.0 0.00 0.23 0.00 48 1011.7
20260901193019 82 115 11.0 23.0 0.00 0.23 0.00 48 1011.8
20260901191559 81 122 9.0 21.0 0.00 0.23 0.00 49 1012.0
20260901191504 81 145 11.0 21.0 0.00 0.23 0.00 49 1012.1
20260901190041 82 141 9.0 16.0 0.00 0.23 0.00 50 1012.3
20260901184602 81 160 13.0 19.0 0.00 0.23 0.00 49 1012.5
20260901183057 80 150 9.0 19.0 0.00 0.23 0.00 51 1012.5
20260901181510 79 166 11.0 18.0 0.00 0.23 0.00 52 1012.7
20260901180053 79 134 8.0 16.0 0.00 0.23 0.00 52 1012.8
20260901174508 78 190 10.0 18.0 0.00 0.23 0.00 55 1012.8
20260901173107 77 153 6.0 13.0 0.00 0.23 0.00 56 1012.9
20260901171531 77 175 7.0 13.0 0.00 0.23 0.00 59 1013.2
20260901170104 75 150 5.0 9.0 0.00 0.23 0.00 61 1013.2
20260901164519 74 134 7.0 12.0 0.00 0.23 0.00 62 1013.2
20260901163114 73 360 6.0 12.0 0.00 0.23 0.00 65 1013.1
20260901161548 71 177 6.0 10.0 0.00 0.23 0.00 67 1013.1
20260901160112 70 189 6.0 12.0 0.00 0.23 0.00 71 1013.0
20260901154536 68 145 2.0 11.0 0.00 0.23 0.00 75 1013.0
20260901153012 67 170 0.0 0.0 0.00 0.23 0.00 82 1013.0
20260901151555 65 188 0.0 1.0 0.00 0.23 0.00 88 1013.0
20260901150118 64 0.0 0.0 0.00 0.23 0.00 92 1013.1
20260901144514 63 0.0 0.0 0.00 0.23 0.00 93 1012.8
20260901143036 61 0.0 0.0 0.00 0.23 0.00 93 1012.8
20260901141614 60 0.0 0.0 0.00 0.23 0.00 93 1013.3
20260901140031 59 0.0 0.0 0.00 0.23 0.00 93 1013.2
20260901134522 58 0.0 0.0 0.00 0.23 0.00 93 1013.2
20260901133041 57 0.0 0.0 0.00 0.23 0.00 92 1013.0
20260901131510 57 163 0.0 0.0 0.00 0.23 0.00 92 1012.9
20260901130048 57 163 0.0 0.0 0.00 0.23 0.00 92 1012.7
20260901124505 57 163 0.0 0.0 0.00 0.23 0.00 92 1012.7
20260901123050 57 163 0.0 2.0 0.00 0.23 0.00 92 1012.5
20260901121526 57 163 1.0 3.0 0.00 0.23 0.00 92 1012.5
20260901120111 57 163 1.0 3.0 0.00 0.23 0.00 91 1012.4
20260901114530 57 163 1.0 2.0 0.00 0.23 0.00 91 1012.3
20260901113009 57 163 1.0 2.0 0.00 0.23 0.00 91 1012.2
20260901111559 58 163 2.0 6.0 0.00 0.23 0.00 91 1012.1
20260901110012 58 163 1.0 5.0 0.00 0.23 0.00 91 1012.1
20260901104601 58 163 1.0 5.0 0.00 0.23 0.00 90 1012.1
20260901104502 58 163 2.0 5.0 0.00 0.23 0.00 90 1012.1
20260901103041 58 163 2.0 5.0 0.00 0.23 0.00 90 1012.2
20260901101522 58 163 0.0 0.0 0.00 0.23 0.00 90 1012.3
20260901100108 58 163 0.0 2.0 0.00 0.23 0.00 90 1012.1
20260901094525 59 163 1.0 3.0 0.00 0.23 0.23 90 1012.2
20260901093101 59 163 0.0 0.0 0.00 0.23 0.23 90 1012.3
20260901093002 59 163 0.0 0.0 0.00 0.23 0.23 90 1012.3
20260901091553 59 163 0.0 0.0 0.00 0.23 0.23 89 1012.1
20260901090016 59 163 0.0 1.0 0.00 0.23 0.23 89 1012.1
20260901084609 60 163 0.0 0.0 0.00 0.23 0.23 89 1012.1
20260901083031 60 163 0.0 1.0 0.00 0.23 0.23 89 1012.1
20260901081517 60 164 0.0 3.0 0.00 0.23 0.23 89 1012.3
20260901080114 60 164 2.0 4.0 0.00 0.23 0.23 88 1012.3
20260901074520 60 163 3.0 5.0 0.00 0.24 0.23 88 1012.1
20260901073010 61 164 3.0 5.0 0.00 0.24 0.23 88 1012.1
20260901071554 61 164 2.0 5.0 0.00 0.24 0.23 87 1012.0
20260901070041 62 164 2.0 5.0 0.00 0.24 0.23 87 1011.9
20260901064552 62 164 2.0 7.0 0.00 0.33 0.23 87 1012.0
20260901063039 62 165 3.0 7.0 0.00 0.33 0.23 87 1011.9
20260901061518 62 165 4.0 7.0 0.00 0.33 0.23 87 1011.8
20260901060103 63 174 4.0 6.0 0.00 0.33 0.23 86 1011.7
20260901054547 63 176 4.0 8.0 0.00 0.33 0.23 86 1011.6